Location: Julian California
(33.0790°N, 116.6010°W)
Time: 23:22:26
(UTC-07:00)

Helios 1B rocket - Pass Details

Date: 12 July 2018
Orbit: 575 x 586 km, 98.2° (Epoch: 15 July)

Event Time Altitude Azimuth Distance (km) Brightness Sun altitude
Rises 22:43:12 0° 7° (N) 2,787 6.6 -27.1°
Reaches altitude 10° 22:45:22 10° 3° (N) 1,886 5.7 -27.3°
Enters shadow 22:48:32 47° 332° (NNW) 771 3.3 -27.7°
